www.pogodaiklimat.ru

Погода и климат >> Архив погоды >> Катар >> Духан


ПОГОДА в Духане

  • Прогноз погоды в Духане
  • Монитор погоды в Духане

АРХИВ ПОГОДЫ в Духане

Время (UTC), дата Ветер
(напр.,м/с)
 
Видим.   Явления Облачность Т
(С)
Тd
(С)
f
(%)
Тe
(С)
Тes
(С)
Комфортность P
(гПа)
Po
(гПа)
Тmin
(С)
Tmax
(С)
R
(мм)
R24
(мм)
S
(см)
21 18.08 СВ 4 20 км н/о +31.8 +24.4 65 +44 +44 опасность
перегрева
1001.4 1001.2
00 19.08 штиль 0 20 км н/о +28.6 +23.4 73 +39 +39 очень
душно
1001.2 1001.0
03 19.08 З 8 20 км н/о +31.3 +26.2 74 +47 +47 опасность
перегрева
1002.2 1002.0
06 19.08 С 8 20 км н/о +33.4 +25.6 64 +48 +48 опасность
перегрева
1003.5 1003.3 +27.8
09 19.08 С 13 20 км н/о +34.3 +27.9 69 +54 +54 опасность
перегрева
1003.0 1002.8
12 19.08 С 17 20 км н/о +35.7 +22.8 47 +45 +45 опасность
перегрева
1001.8 1001.6
15 19.08 СВ 8 20 км н/о +35.8 +24.6 53 +49 +49 опасность
перегрева
1002.2 1002.0
18 19.08 С 9 20 км н/о +33.7 +28.5 74 +56 +56 опасность
перегрева
1004.0 1003.8 +37.3
21 19.08 В 6 20 км н/о +32.7 +27.8 75 +52 +52 опасность
перегрева
1003.3 1003.1
00 20.08 В 2 20 км н/о +31.8 +27.5 78 +51 +51 опасность
перегрева
1002.4 1002.2
03 20.08 С 4 20 км н/о +31.5 +28.8 86 +54 +54 опасность
перегрева
1004.0 1003.8
06 20.08 СЗ 7 13 км н/о +34.1 +28.1 71 +55 +55 опасность
перегрева
1005.5 1005.3 +31.0
09 20.08 СЗ 10 11 км н/о +34.9 +29.0 72 +59 +59 опасность
перегрева
1003.9 1003.7
12 20.08 С 11 12 км н/о +36.0 +27.1 60 +54 +54 опасность
перегрева
1002.5 1002.3
15 20.08 С 6 16 км н/о +36.5 +27.6 60 +56 +56 опасность
перегрева
1002.6 1002.4
18 20.08 В 7 13 км н/о +36.0 +22.2 45 +45 +45 опасность
перегрева
1003.9 1003.7 +40.3
21 20.08 штиль 0 10 км н/о +32.3 +24.6 64 +45 +45 опасность
перегрева
1002.9 1002.7
00 21.08 В 3 10 км н/о +29.9 +23.9 70 +41 +41 опасность
перегрева
1002.6 1002.4
03 21.08 Ю 5 8000 м н/о +29.2 +23.1 70 +39 +39 очень
душно
1003.4 1003.2
06 21.08 ЮЗ 8 10 км н/о +35.0 +27.6 66 +55 +55 опасность
перегрева
1004.8 1004.6 +28.2
09 21.08 СЗ 3 10 км н/о +37.6 +24.0 46 +49 +49 опасность
перегрева
1003.6 1003.4
12 21.08 С 7 13 км н/о +39.4 +24.7 43 +51 +51 опасность
перегрева
1001.7 1001.5
15 21.08 С 2 15 км н/о +38.1 +22.6 41 +47 +47 опасность
перегрева
1001.2 1001.0
18 21.08 ЮВ 7 9000 м н/о +34.7 +23.0 51 +45 +45 опасность
перегрева
1001.9 1001.7 +41.2
21 21.08 В 9 9000 м н/о +32.9 +26.3 68 +49 +49 опасность
перегрева
1001.8 1001.6
00 22.08 Ю 6 6000 м н/о +32.1 +28.0 79 +53 +53 опасность
перегрева
1001.1 1000.9
03 22.08 ЮЗ 7 8000 м н/о +32.3 +29.1 83 +56 +56 опасность
перегрева
1001.6 1001.4
06 22.08 ЮЗ 5 13 км н/о +35.5 +24.7 54 +49 +49 опасность
перегрева
1002.4 1002.2 +30.7
09 22.08 СЗ 5 16 км н/о +38.2 +24.2 45 +50 +50 опасность
перегрева
1001.3 1001.1
12 22.08 С 8 17 км н/о +37.7 +23.4 44 +48 +48 опасность
перегрева
1000.0 999.8
15 22.08 С 7 13 км н/о +35.5 +27.4 63 +54 +54 опасность
перегрева
999.7 999.5
18 22.08 С 4 6000 м н/о +34.2 +28.6 73 +57 +57 опасность
перегрева
1000.8 1000.6 +40.4
21 22.08 ЮВ 7 7000 м н/о +32.2 +25.8 69 +47 +47 опасность
перегрева
1000.8 1000.6
00 23.08 Ю 3 н/о н/о +31.0 +26.1 75 +46 +46 опасность
перегрева
1000.7 1000.5
03 23.08 ЮВ 2 4000 м н/о +29.6 +26.2 82 +45 +45 опасность
перегрева
1002.0 1001.8
06 23.08 З 4 8000 м н/о +33.7 +26.3 65 +50 +50 опасность
перегрева
1003.1 1002.9 +29.1
09 23.08 СЗ 7 6000 м н/о +35.6 +27.2 62 +54 +54 опасность
перегрева
1001.9 1001.7
12 23.08 С 11 6000 м н/о +35.6 +28.4 67 +58 +58 опасность
перегрева
1000.7 1000.5
15 23.08 С 11 6000 м н/о +35.2 +29.6 73 +61 +61 опасность
перегрева
1000.9 1000.7
18 23.08 В 5 8000 м н/о +33.2 +25.6 64 +48 +48 опасность
перегрева
1002.4 1002.2 +36.2
21 23.08 В 6 6000 м н/о +32.1 +28.5 81 +54 +54 опасность
перегрева
1002.1 1001.9
00 24.08 Ю 2 н/о н/о +30.4 +28.1 88 +51 +51 опасность
перегрева
1001.6 1001.4
03 24.08 ЮВ 3 6000 м н/о +30.2 +28.3 90 +51 +51 опасность
перегрева
1003.4 1003.2
06 24.08 СЗ 4 7000 м н/о +33.2 +29.4 81 +58 +58 опасность
перегрева
1004.6 1004.4 +29.0
09 24.08 СЗ 11 8000 м н/о +34.9 +30.0 76 +62 +62 опасность
перегрева
1002.9 1002.7
12 24.08 С 11 13 км н/о +37.1 +24.8 50 +50 +50 опасность
перегрева
1001.2 1001.0
15 24.08 С 8 19 км н/о +37.4 +22.8 43 +47 +47 опасность
перегрева
1001.4 1001.2
18 24.08 В 10 13 км н/о +35.0 +27.8 66 +55 +55 опасность
перегрева
1002.6 1002.4 +38.1
21 24.08 В 5 14 км н/о +33.2 +25.0 62 +47 +47 опасность
перегрева
1001.6 1001.4
00 25.08 ЮВ 7 9000 м н/о +31.1 +27.7 82 +50 +50 опасность
перегрева
1001.3 1001.1
03 25.08 СВ 3 8000 м н/о +30.6 +27.4 83 +49 +49 опасность
перегрева
1002.7 1002.5
06 25.08 ЮЗ 5 6000 м н/о +34.0 +29.2 76 +58 +58 опасность
перегрева
1003.8 1003.6 +30.3
09 25.08 СЗ 6 12 км н/о +35.8 +27.6 63 +55 +55 опасность
перегрева
1002.3 1002.1
12 25.08 С 8 14 км н/о +37.2 +26.9 56 +55 +55 опасность
перегрева
1000.7 1000.5
15 25.08 СВ 6 14 км н/о +37.8 +24.5 47 +50 +50 опасность
перегрева
1000.7 1000.5
18 25.08 В 8 18 км н/о +35.5 +19.4 39 +41 +41 опасность
перегрева
1002.1 1001.9 +40.7

 

Местоположение метеостанции Духан (Катар): широта 25.40 долгота 50.75 высота над уровнем моря 5 м.

В архиве по умолчанию представлена погода в Духане за последнюю неделю. Архивные данные за месяц целиком и за предыдущие месяцы, начиная с января 2011 года, Вы можете получить, выбрав интересующий диапазон дат из раскрывающегося списка и нажав кнопку "Ввод!".


*Определитесь, кто Вы:
робот инопланетянин человек

Внимание! Время в таблицах - всемирное. Для получения местного времени необходимо прибавить поправку, которая равна 4 ч.

Смотрите также архив погоды в соседних городах и на ближайших метеорологических станциях:

Погода в Абу Самба (Катар) (73 км)
Погода в Дохе (Катар) (84 км)
Погода в Аэропорту Хамад (Катар) (88 км)
Погода в Доха порту (Катар) (91 км)
Погода в Бахрейне (Бахрейн) (97 км)
Погода в Дахране (Саудовская Аравия) (113 км)
Погода в Эль-Хуфуфе (Саудовская Аравия) (128 км)
Погода в Эд-Даммаме (Саудовская Аравия) (149 км)
Погода в Бендер-Дейере (Иран) (295 км)
Погода на Острове Киш (Иран) (345 км)

Пояснения к столбцам:

Ветер - указаны скорость ветра в м/с - средняя за 10 мин, порывы в срок и между сроками (в фигурных скобках) и направление, откуда дует ветер: С - северный, СВ - северо-восточный, В - восточный, ЮВ - юго-восточный, Ю - южный, ЮЗ - юго-западный, З - западный, СЗ - северо-западный.
Видимость - горизонтальная дальность видимости в метрах или километрах. При видимости от 1 до 10 км при отсутствии осадков обычно наблюдается дымка, при ухудшении видимости до 1 км и менее - туман. В сухую погоду видимость может ухудшаться дымом, пылью или мглою.
Явления - указаны атмосферные явления, наблюдавшиеся в срок или в последний час перед сроком; фигурными скобками обозначены явления, наблюдавшиеся между сроками (за 1-3 часа до срока); квадратными скобками обозначены град или гололедные отложения с указанием их диаметра в мм.
Облачность - указаны через наклонную черту общая и нижняя облачность в баллах и высота нижней границы облаков в метрах; квадратными скобками обозначены формы облаков: Ci - перистые, Cs - перисто-слоистые, Cc - перисто-кучевые, Ac - высококучевые, As - высокослоистые, Sc - слоисто-кучевые, Ns - слоисто-дождевые, Cu - кучевые, Cb - кучево-дождевые. Подробнее классификацию облаков см. в Атласе облаков (PDF).
T - Температура воздуха - температура, измеренная на высоте 2 м над землей.
Td - Температура точки росы - температура, при понижении до которой содержащийся в воздухе водяной пар достигнет насыщения.
f - Относительная влажность воздуха - влажноcть воздуха, измеренная на высоте 2 м над землей.
Te - Эффективная температура - температура, которую ощущает одетый по сезону человек в тени. Характеристика душности погоды. При расчете учитывается влияние влажности воздуха и скорости ветра на теплоощущения человека.
Tes - Эффективная температура на солнце - температура, которую ощущает человек, с поправкой на солнечный нагрев. Характеристика знойности погоды. Зависит от высоты солнца над горизонтом, облачности и скорости ветра. Ночью, в пасмурную погоду, а также при ветре 12 м/с и более поправка равна нулю.
P - Атмосферное давление - приведенное к уровню моря атмосферное давление.
Po - Атмосферное давление - измеренное на уровне метеостанции атмосферное давление.
Tmin - Минимальная температура - минимум температуры воздуха на высоте 2 м над землей.
Tmax - Максимальная температура - максимум температуры воздуха на высоте 2 м над землей.
R - Количество осадков - Количество выпавших осадков за период времени, мм. При наведении курсора мыши на число - период времени, за который выпало указанное количество осадков.
R24 - Количество осадков - Количество выпавших осадков за 24 часа, мм.
S - Снежный покров - Высота снежного покрова, см. При наведении курсора мыши на число - состояние снежного покрова и степень покрытия местности в баллах.